FBU70A LFPO-FMEE

Flight info

Callsign FBU70A
Flight time N/A
Altitude 33000
Route BUBLI DCT LUVAL DCT SHARA DCT DEVDI DCT RIPUS DCT RESIA DCT PUL DCT ZDA DCT NERRA DCT DBK DCT MOKUN DCT DOBAR DCT BITLA UN137 NEVRA/N0483F370 DCT AKINA DCT LINRO DCT VAXOS UN134 VANZA DCT RASDA A16 CVO L315 HGD V730 MAK T55 DEDLU M999 JDW G650 RASKA/N0495F380 G650 ULONI/N0495F370 UV790 SB UR775 ALNAB/N0491F390 UR775 MOGDU UN304 APKAK/N0491F380 UN304 DENLI/N0492F370 UN304 ANVOR DCT UVENA
Aircraft A35K/H-SDE2E3GHIJ3J4J5LM1ORWXY/LB1D1

Departure

Time 2026-05-05 22:14
Airport Paris-Orly Airport (LFPO)

Arrival

Time N/A
Airport Roland Garros Airport (FMEE)
Time Latitude Longitude Altitude Speed Heading
2026-05-05 21:41 48.72928 2.37600 297 ft 0 kts 310°
2026-05-05 22:02 48.72933 2.37591 295 ft 5 kts 310°
2026-05-05 22:02 48.72956 2.37550 299 ft 5 kts 310°
2026-05-05 22:02 48.72980 2.37507 301 ft 7 kts 310°
2026-05-05 22:02 48.73003 2.37466 300 ft 5 kts 310°
2026-05-05 22:03 48.73010 2.37453 301 ft 3 kts 310°
2026-05-05 22:03 48.72994 2.37483 300 ft 4 kts 310°
2026-05-05 22:03 48.72972 2.37522 300 ft 5 kts 310°
2026-05-05 22:03 48.72947 2.37568 298 ft 6 kts 310°
2026-05-05 22:04 48.72921 2.37614 298 ft 6 kts 310°
2026-05-05 22:04 48.72896 2.37659 299 ft 6 kts 310°
2026-05-05 22:04 48.72871 2.37705 300 ft 6 kts 310°
2026-05-05 22:04 48.72850 2.37754 299 ft 6 kts 264°
2026-05-05 22:05 48.72865 2.37794 299 ft 3 kts 204°
2026-05-05 22:05 48.72885 2.37804 298 ft 0 kts 189°
2026-05-05 22:07 48.72884 2.37804 298 ft 1 kts 189°
2026-05-05 22:07 48.72841 2.37783 300 ft 9 kts 198°
2026-05-05 22:08 48.72785 2.37755 296 ft 11 kts 198°
2026-05-05 22:08 48.72700 2.37685 300 ft 15 kts 230°
2026-05-05 22:08 48.72668 2.37560 298 ft 11 kts 253°
2026-05-05 22:08 48.72643 2.37425 298 ft 16 kts 254°
2026-05-05 22:09 48.72608 2.37241 297 ft 20 kts 254°
2026-05-05 22:09 48.72571 2.37038 300 ft 19 kts 255°
2026-05-05 22:09 48.72539 2.36865 296 ft 16 kts 254°
2026-05-05 22:09 48.72510 2.36709 300 ft 16 kts 254°
2026-05-05 22:10 48.72481 2.36549 298 ft 16 kts 254°
2026-05-05 22:10 48.72450 2.36382 297 ft 17 kts 254°
2026-05-05 22:10 48.72429 2.36270 300 ft 17 kts 254°
2026-05-05 22:10 48.72398 2.36097 299 ft 17 kts 255°
2026-05-05 22:11 48.72368 2.35936 299 ft 14 kts 255°
2026-05-05 22:11 48.72344 2.35806 300 ft 11 kts 254°
2026-05-05 22:11 48.72319 2.35679 297 ft 8 kts 245°
2026-05-05 22:11 48.72268 2.35610 298 ft 15 kts 202°
2026-05-05 22:12 48.72163 2.35627 294 ft 14 kts 164°
2026-05-05 22:12 48.72081 2.35674 300 ft 11 kts 150°
2026-05-05 22:12 48.72047 2.35722 299 ft 9 kts 129°
2026-05-05 22:12 48.72014 2.35791 301 ft 7 kts 125°
2026-05-05 22:13 48.71987 2.35857 300 ft 9 kts 121°
2026-05-05 22:13 48.71965 2.35954 296 ft 13 kts 91°
2026-05-05 22:13 48.71995 2.36152 299 ft 32 kts 75°
2026-05-05 22:13 48.72116 2.36789 301 ft 95 kts 75°
2026-05-05 22:14 48.72346 2.38049 302 ft 152 kts 75°
2026-05-05 22:14 48.72640 2.39757 701 ft 168 kts 72°
2026-05-05 22:14 48.72934 2.41486 1374 ft 175 kts 72°
2026-05-05 22:14 48.73224 2.43309 1976 ft 182 kts 72°
2026-05-05 22:15 48.73563 2.45261 2191 ft 201 kts 70°
2026-05-05 22:15 48.73933 2.47392 2354 ft 224 kts 77°
2026-05-05 22:15 48.74049 2.49889 2472 ft 250 kts 85°
2026-05-05 22:15 48.74126 2.52560 2989 ft 256 kts 83°
2026-05-05 22:16 48.74261 2.55245 3686 ft 255 kts 83°
2026-05-05 22:16 48.74449 2.57932 4245 ft 259 kts 81°
2026-05-05 22:16 48.74696 2.60655 4792 ft 263 kts 81°
2026-05-05 22:16 48.74941 2.63413 5365 ft 267 kts 81°
2026-05-05 22:17 48.75176 2.66213 5976 ft 269 kts 82°
2026-05-05 22:17 48.75413 2.69045 6554 ft 272 kts 82°
2026-05-05 22:17 48.75644 2.71869 7145 ft 275 kts 83°
2026-05-05 22:17 48.75872 2.74773 7749 ft 279 kts 83°
2026-05-05 22:18 48.76094 2.77708 8362 ft 283 kts 84°
2026-05-05 22:18 48.76317 2.80688 8990 ft 286 kts 84°
2026-05-05 22:18 48.76547 2.83705 9608 ft 290 kts 84°
2026-05-05 22:18 48.76782 2.86767 10132 ft 297 kts 84°
2026-05-05 22:19 48.77023 2.89959 10411 ft 313 kts 84°
2026-05-05 22:19 48.77276 2.93327 10698 ft 328 kts 84°
2026-05-05 22:19 48.77540 2.96842 10987 ft 343 kts 84°
2026-05-05 22:19 48.77850 3.00504 11277 ft 358 kts 81°
2026-05-05 22:20 48.78306 3.04239 11556 ft 372 kts 79°
2026-05-05 22:20 48.78805 3.08147 11880 ft 383 kts 80°
2026-05-05 22:20 48.79305 3.12152 12390 ft 388 kts 80°
2026-05-05 22:20 48.79796 3.16188 12959 ft 392 kts 80°
2026-05-05 22:21 48.80288 3.20286 13530 ft 396 kts 81°
2026-05-05 22:21 48.80779 3.24419 14063 ft 400 kts 81°
2026-05-05 22:21 48.81271 3.28581 14591 ft 403 kts 81°
2026-05-05 22:21 48.81764 3.32774 15119 ft 406 kts 81°
2026-05-05 22:22 48.82137 3.37028 15634 ft 408 kts 88°
2026-05-05 22:22 48.82058 3.41279 16157 ft 409 kts 96°
2026-05-05 22:22 48.81793 3.45591 16687 ft 412 kts 97°
2026-05-05 22:22 48.81504 3.49934 17212 ft 415 kts 97°
2026-05-05 22:23 48.81216 3.54304 17735 ft 418 kts 97°
2026-05-05 22:23 48.80928 3.58711 18232 ft 421 kts 97°
2026-05-05 22:23 48.80639 3.63143 18719 ft 424 kts 97°
2026-05-05 22:23 48.80348 3.67602 19213 ft 426 kts 97°
2026-05-05 22:24 48.80054 3.72087 19724 ft 428 kts 97°
2026-05-05 22:24 48.79758 3.76592 20225 ft 431 kts 97°
2026-05-05 22:24 48.79458 3.81129 20737 ft 434 kts 97°
2026-05-05 22:24 48.79154 3.85696 21254 ft 436 kts 97°
2026-05-05 22:25 48.78852 3.90216 21734 ft 439 kts 97°
2026-05-05 22:25 48.78541 3.94832 22226 ft 442 kts 97°
2026-05-05 22:25 48.78226 3.99483 22719 ft 445 kts 97°
2026-05-05 22:25 48.77908 4.04159 23215 ft 447 kts 97°
2026-05-05 22:26 48.77551 4.08859 23649 ft 450 kts 100°
2026-05-05 22:26 48.76858 4.13479 24041 ft 451 kts 109°
2026-05-05 22:26 48.75652 4.17858 24448 ft 451 kts 119°
2026-05-05 22:26 48.74047 4.21872 24871 ft 452 kts 124°
2026-05-05 22:27 48.72274 4.25808 25292 ft 454 kts 127°
2026-05-05 22:27 48.70427 4.29702 25705 ft 456 kts 127°
2026-05-05 22:27 48.68553 4.33582 26125 ft 458 kts 128°
2026-05-05 22:27 48.66666 4.37488 26531 ft 460 kts 127°
2026-05-05 22:28 48.64778 4.41418 26943 ft 463 kts 127°
2026-05-05 22:28 48.62890 4.45373 27332 ft 465 kts 127°
2026-05-05 22:28 48.61001 4.49351 27724 ft 467 kts 127°
2026-05-05 22:28 48.59129 4.53299 28126 ft 469 kts 127°
2026-05-05 22:29 48.57223 4.57323 28485 ft 472 kts 127°
2026-05-05 22:29 48.55311 4.61354 28832 ft 474 kts 127°
2026-05-05 22:29 48.53384 4.65408 29163 ft 476 kts 127°
2026-05-05 22:29 48.51447 4.69477 29494 ft 478 kts 128°
2026-05-05 22:30 48.49499 4.73561 29872 ft 479 kts 128°
2026-05-05 22:30 48.47561 4.77619 30265 ft 478 kts 128°
2026-05-05 22:30 48.45611 4.81696 30612 ft 478 kts 128°
2026-05-05 22:30 48.43666 4.85756 30928 ft 478 kts 128°
2026-05-05 22:31 48.41748 4.89751 31251 ft 478 kts 128°
2026-05-05 22:31 48.39799 4.93806 31575 ft 478 kts 128°
2026-05-05 22:31 48.37850 4.97856 31860 ft 478 kts 129°
2026-05-05 22:31 48.35898 5.01904 32151 ft 478 kts 129°
2026-05-05 22:32 48.33946 5.05946 32434 ft 478 kts 129°
2026-05-05 22:32 48.31990 5.09997 32722 ft 478 kts 129°
2026-05-05 22:32 48.30202 5.14222 32980 ft 482 kts 121°
2026-05-05 22:32 48.28792 5.18803 33250 ft 485 kts 113°
2026-05-05 22:33 48.27702 5.23529 33524 ft 486 kts 111°
2026-05-05 22:33 48.26689 5.28374 33754 ft 487 kts 110°
2026-05-05 22:33 48.25719 5.33244 33970 ft 488 kts 109°
2026-05-05 22:33 48.24762 5.38126 34173 ft 488 kts 109°
2026-05-05 22:34 48.23800 5.43017 34347 ft 488 kts 109°
2026-05-05 22:34 48.22832 5.47888 34513 ft 489 kts 110°
2026-05-05 22:34 48.21849 5.52779 34701 ft 489 kts 110°
2026-05-05 22:34 48.20861 5.57651 34821 ft 486 kts 110°
2026-05-05 22:35 48.19887 5.62437 34842 ft 474 kts 110°
2026-05-05 22:35 48.17989 5.71714 34848 ft 467 kts 110°
2026-05-05 22:36 48.16067 5.81021 34850 ft 468 kts 110°
2026-05-05 22:36 48.14137 5.90333 34851 ft 468 kts 110°
2026-05-05 22:37 48.12201 5.99648 34850 ft 469 kts 111°
2026-05-05 22:37 48.10269 6.08902 34854 ft 469 kts 111°
2026-05-05 22:38 48.08316 6.18211 34866 ft 470 kts 111°
2026-05-05 22:38 48.06350 6.27540 34863 ft 470 kts 111°
2026-05-05 22:39 48.04381 6.36845 34868 ft 470 kts 111°
2026-05-05 22:39 48.02403 6.46148 34869 ft 470 kts 111°
2026-05-05 22:40 48.00430 6.55385 34872 ft 470 kts 111°
2026-05-05 22:40 47.98438 6.64670 34872 ft 470 kts 111°